Regional Weather Roundup
Issued by NWS

Home | Current Version | Previous Version | Text Only | Print | Product List | Glossary Off
Versions: 1 2 3 4 5 6 7 8 9 10 11 12 13 14 15 16 17 18 19 20 21 22 23 24 25 26 27 28 29 30 31 32 33 34 35 36 37 38 39 40 41 42 43 44 45 46 47 48 49 50

341
ASUS45 KTFX 240910
RWRMT
MONTANA REGIONAL WEATHER ROUNDUP
NATIONAL WEATHER SERVICE GREAT FALLS MT
300 AM MDT TUE OCT 24 2017

NOTE: "FAIR" INDICATES FEW OR NO CLOUDS BELOW 12000 FEET WITH NO
SIGNIFICANT WEATHER AND/OR OBSTRUCTIONS TO VISIBILITY.

MTZ001>007-043-241000-
WEST OF THE DIVIDE

CITY           SKY/WX    TMP DP  RH WIND       PRES   REMARKS
KALISPELL      PTCLDY    29  28  96 CALM      30.68F
MISSOULA       CLEAR     33  30  88 CALM      30.72S
BUTTE          CLOUDY    28  23  81 SW3       30.69R
MULLAN PASS    CLEAR     35  26  69 S6        30.68S WCI  30
ANACONDA         N/A     28  23  80 CALM      30.69S
DEER LODGE       N/A     28  25  86 SW3       30.71S
EUREKA           N/A     32  28  86 MISG      30.68R
HAMILTON         N/A     37  28  70 SE6       30.70F
LIBBY            N/A     28  28 100 CALM      30.70R
$$

MTZ008-052>055-241000-
SOUTHWEST MONTANA

CITY           SKY/WX    TMP DP  RH WIND       PRES   REMARKS
BOZEMAN        CLOUDY    25  20  81 SE6       30.66S WCI  18
DILLON         CLOUDY    30  19  63 S7        30.67S WCI  23
W YELLOWSTONE  CLOUDY    21  19  93 CALM      30.70R
ENNIS          CLOUDY    28  21  74 CALM      30.71S
THREE FORKS      N/A     22  16  78 SE1       30.57S
$$

MTZ009-010-012-014-046-048-049-054-241000-
EAST SLOPES AND CENTRAL MONTANA

CITY           SKY/WX    TMP DP  RH WIND       PRES   REMARKS
CUT BANK       CLEAR     46  26  45 W31G40    30.40F
GREAT FALLS    CLEAR     43  26  51 SW15      30.48F
MALMSTROM AFB  CLEAR     40  28  62 SW15      30.48F
HELENA         CLEAR     48  25  40 W7        30.61F
BOWMANS CRNR     N/A     37  27  66 S12       30.49F WCI  29
CHOTEAU          N/A     48  27  43 W13G22    30.47S
FAIRFIELD        N/A     41  26  54 S9        30.46F
POWER            N/A     38  26  61 SW12      30.46F WCI  31
RAYNESFORD       N/A     48  25  40 SW16G26   30.47F
ULM              N/A     39  28  65 S9        30.49F
$$

MTZ011-013-016-021-045-047-050-051-241000-
NORTH CENTRAL MONTANA

CITY           SKY/WX    TMP DP  RH WIND       PRES   REMARKS
HAVRE          CLOUDY    35  27  72 SW8       30.42F WCI  29
LEWISTOWN      CLOUDY    34  22  61 NE3       30.48F
N BAR RANCH      N/A     27  18  69 N7        30.52R WCI  19
CHINOOK          N/A     32  25  74 CALM      30.42F
DENTON           N/A     33  23  65 S13       30.43F WCI  24
GEYSER           N/A     44  24  45 W13       30.46F
GRASS RANGE      N/A     34  22  60 SW5       30.45F
WINIFRED         N/A     40  23  52 SW6       30.46S
$$

MTZ017>020-022>027-061-062-241000-
NORTHEAST MONTANA

CITY           SKY/WX    TMP DP  RH WIND       PRES   REMARKS
GLASGOW        CLEAR     34  24  67 W6        30.43F WCI  29
JORDAN           N/A     24  20  84 W6        30.46F WCI  17
SIDNEY         CLEAR     34  24  67 W15       30.41F WCI  24
WOLF POINT     CLEAR     31  22  69 SW8       30.44F WCI  23
MALTA          CLEAR     25  23  93 W7        30.44F WCI  17
PLENTYWOOD       N/A     34  25  69 CALM      30.40F
POPLAR           N/A     32  21  64 CALM      30.43F
$$

MTZ028>42-056>058-241000-
SOUTHCENTRAL AND SOUTHEAST MONTANA

CITY           SKY/WX    TMP DP  RH WIND       PRES   REMARKS
BAKER          CLEAR     30  24  78 W10       30.45F WCI  21
BILLINGS       CLOUDY    41  22  46 SW10      30.53R
LIVINGSTON     CLOUDY    41  21  44 W17       30.60R
MILES CITY     CLEAR     32  24  72 W9        30.49S WCI  24
BIG TIMBER     CLEAR     46  21  36 W31G39    30.52S
FORSYTH          N/A     34  21  60 CALM      30.50S
HARLOWTON        N/A     42  25  50 NW21G28   30.50S
LAUREL           N/A     36  19  51 SW7       30.54S WCI  30
$$

REGIONAL REPORTS...DAKOTAS

CITY           SKY/WX    TMP DP  RH WIND       PRES   REMARKS
WILLISTON      CLEAR     33  26  75 S7        30.39S WCI  27
MINOT          CLEAR     36  30  79 W13       30.32S WCI  27
DICKINSON      CLEAR     30  24  78 W12       30.38S WCI  20
BEACH            N/A     37  21  52 NW15      30.46R WCI  28
CROSBY           N/A     36  28  75 W12       30.37F WCI  27
TIOGA            N/A     30  30 100 NW9       30.37F WCI  22
WATFORD CITY     N/A     32  27  80 S7        30.39S WCI  26
BISMARCK       CLEAR     37  31  78 W6        30.32F
GRAND FORKS    CLEAR     32  29  88 NW14      30.17S WCI  22
FARGO          CLEAR     35  30  82 NW17G25   30.14S WCI  25
BUFFALO SD       N/A     37  24  59 NW15      30.36F WCI  28
RAPID CITY     CLEAR     41  22  46 NW16      30.44S
$$

REGIONAL REPORTS...WYOMING/IDAHO/WASHINGTON

CITY           SKY/WX    TMP DP  RH WIND       PRES   REMARKS
GILLETTE       CLEAR     33  19  56 W10       30.51F WCI  25
SHERIDAN       CLEAR     30  20  66 S6        30.53S WCI  24
BUFFALO WY     CLOUDY    34  14  43 W8        30.54F WCI  27
CODY           CLOUDY    31  20  63 S3        30.56F
YELLOWSTONE LA   N/A     21 N/A N/A NW5       30.71F
IDAHO FALLS    CLOUDY    34  31  88 SW8       30.69R WCI  27
SALMON         CLOUDY    28  25  88 CALM      30.76S
BOISE          CLEAR     41  35  79 S5        30.67S
SPOKANE        PTCLDY    40  38  93 CALM      30.70R
$$

REGIONAL REPORTS...ALBERTA

CITY           SKY/WX    TMP DP  RH WIND       PRES   REMARKS
EDMONTON       PTCLDY    45  25  45 SW12      30.09F
CALGARY        PTCLDY    54  23  30 W18G29    30.28S
LETHBRIDGE     PTCLDY    50  28  43 W22G33    30.36R
MEDICINE HAT   CLEAR     36  28  75 SW10      30.33F WCI  28
$$

REGIONAL REPORTS...SASKATCHEWAN

CITY           SKY/WX    TMP DP  RH WIND       PRES   REMARKS
SWIFT CURRENT  PTCLDY    34  23  64 SW12      30.33F WCI  25
REGINA         CLEAR     27  23  86 W2        30.34F
SASKATOON      CLEAR     28  25  86 SW7       30.30F WCI  21
$$




USA.gov is the U.S. government's official web portal to all federal, state and local government web resources and services.